User: anonymous   Login
Location: Turtle Rock Observatory
(36.6913°N, 81.9708°W)
Time: 00:58:09
(UTC-05:00)
Language:

Cosmos 1125 Rocket - Orbit

View from above orbital plane
View from above orbital plane
View from above satellite
View from above satellite

Ground track
Ground track

The orbit data is extracted from the following two-line orbital elements,

1 11511U 79078B   18017.19975495 +.00000047 +00000-0 +24875-4 0  9997
2 11511 074.0373 281.9369 0014606 115.9834 244.2825 14.36799281009063
Epoch (UTC): 17 January 2018 04:47:38
Eccentricity: 0.0014606
inclination: 74.0373°
perigee height: 758 km
apogee height: 779 km
right ascension of ascending node: 281.9369°
argument of perigee: 115.9834°
revolutions per day: 14.36799281
mean anomaly at epoch: 244.2825°
orbit number at epoch: 906

The dashed part of the orbit path shows where the satellite is in the earth's shadow,  

DLR